Location: Unspecified
(0.0000°N, 0.0000°E)
Time: 06:23:23
(UTC+00:00)

ISS - Pass Details

Date: 13 October 2019
Orbit: 411 x 421 km, 51.6° (Epoch: 14 October)

Event Time Altitude Azimuth Distance (km) Brightness Sun altitude
Rises 18:38:46 0° 347° (NNW) 2,321 0.1 -13.0°
Reaches altitude 10° 18:41:12 10° 5° (N) 1,465 -1.1 -13.6°
Enters shadow 18:43:06 19° 39° (NE) 1,039 -2.2 -14.1°
